Baker, MT

11:29 AM MDT on September 26, 2017 (GMT -0600)
Baker Municipal

Weather History for KBHK - October, 2013

Change the Weather History Date:

Sunday, October 13, 2013

  Actual Average Record
Temperature  
Mean Temperature 42 °F -  
Max Temperature 55 °F 75 °F 73 °F (1999)
Min Temperature 28 °F 32 °F 19 °F (2006)
Degree Days  
Heating Degree Days 24    
Moisture  
Dew Point 33 °F    
Average Humidity 79    
Maximum Humidity 100    
Minimum Humidity 50    
Precipitation  
Precipitation 0.03 in - - ()
Sea Level Pressure  
Sea Level Pressure 30.25 in    
Wind  
Wind Speed 9 mph (ESE)    
Max Wind Speed 22 mph    
Max Gust Speed 31 mph    
Visibility 10 miles    
Events Rain    
Averages and records for this station are not official NWS values.
T = Trace of Precipitation, MM = Missing Value Source: NWS Daily Summary

Daily Weather History Graph

Daily Weather History Graph

Search for Another Location

Airport or City:

Trip Planner

Search our weather history database for the weather conditions in past years. The results will help you decide how hot, cold, wet, or windy it might be!

Date:

Astronomy

Oct. 13, 2013 Rise Set
Actual Time 7:11 AM MDT 6:13 PM MDT
Civil Twilight 6:41 AM MDT 6:43 PM MDT
Nautical Twilight 6:06 AM MDT 7:18 PM MDT
Astronomical Twilight 5:31 AM MDT 7:53 PM MDT
Moon 3:22 PM MDT (10/13) 1:06 AM MDT (10/13)
Length of Visible Light 12h 02m
Length of Day
11h 01m
Waxing Gibbous, 70% of the Moon is Illuminated
Oct 13
Waxing Gibbous
Oct 18
Full
Oct 26
Last Quarter
Nov 3
New
Nov 9
First Quarter

Hourly Weather History & Observations

Time (MDT) Temp. Windchill Dew Point Humidity Pressure Visibility Wind Dir Wind Speed Gust Speed Precip Events Conditions
12:51 AM 30.9 °F - 27.0 °F 85% 30.27 in 10.0 mi Calm Calm - N/A   Clear
1:51 AM 28.9 °F 23.9 °F 26.1 °F 89% 30.28 in 10.0 mi SSE 4.6 mph - N/A   Clear
2:51 AM 28.0 °F 21.7 °F 26.1 °F 92% 30.28 in 10.0 mi SE 5.8 mph - N/A   Clear
3:51 AM 28.0 °F 21.7 °F 27.0 °F 96% 30.29 in 10.0 mi SE 5.8 mph - N/A   Clear
4:51 AM 28.9 °F 23.9 °F 27.0 °F 92% 30.28 in 10.0 mi East 4.6 mph - N/A   Clear
5:51 AM 28.0 °F 21.7 °F 27.0 °F 96% 30.30 in 10.0 mi SE 5.8 mph - N/A   Clear
6:51 AM 28.0 °F 20.8 °F 28.0 °F 100% 30.31 in 10.0 mi SE 6.9 mph - N/A   Clear
7:51 AM 28.9 °F 21.1 °F 28.0 °F 96% 30.33 in 10.0 mi SE 8.1 mph - N/A   Clear
8:51 AM 34.0 °F 28.0 °F 32.0 °F 92% 30.31 in 10.0 mi ESE 6.9 mph - N/A   Clear
9:51 AM 42.1 °F 35.7 °F 35.1 °F 76% 30.30 in 10.0 mi ESE 11.5 mph - N/A   Clear
10:51 AM 44.1 °F 38.6 °F 35.1 °F 71% 30.30 in 10.0 mi ESE 10.4 mph - N/A   Clear
11:51 AM 51.1 °F - 35.1 °F 54% 30.27 in 10.0 mi ESE 17.3 mph 24.2 mph N/A   Clear
12:51 PM 53.1 °F - 35.1 °F 50% 30.23 in 10.0 mi ESE 18.4 mph 25.3 mph N/A   Clear
1:51 PM 55.0 °F - 37.0 °F 51% 30.21 in 10.0 mi East 18.4 mph 25.3 mph N/A   Clear
2:51 PM 53.1 °F - 36.0 °F 52% 30.19 in 10.0 mi ESE 21.9 mph 31.1 mph N/A   Clear
3:51 PM 52.0 °F - 37.0 °F 57% 30.19 in 10.0 mi ESE 17.3 mph 26.5 mph N/A   Clear
4:51 PM 50.0 °F - 36.0 °F 59% 30.19 in 10.0 mi East 17.3 mph 26.5 mph N/A   Clear
5:51 PM 46.9 °F - 36.0 °F 66% 30.19 in 10.0 mi East 18.4 mph 25.3 mph N/A   Mostly Cloudy
6:51 PM 45.0 °F 37.9 °F 37.0 °F 74% 30.22 in 10.0 mi East 16.1 mph 23.0 mph N/A   Mostly Cloudy
7:51 PM 44.1 °F 37.7 °F 39.0 °F 82% 30.23 in 10.0 mi East 12.7 mph - N/A   Overcast
8:51 PM 43.0 °F 35.7 °F 37.9 °F 82% 30.22 in 10.0 mi East 15.0 mph - N/A   Overcast
9:51 PM 42.1 °F 35.2 °F 39.0 °F 89% 30.19 in 10.0 mi East 12.7 mph - 0.00 in Rain Light Rain
10:51 PM 41.0 °F 32.5 °F 39.9 °F 96% 30.17 in 10.0 mi ENE 17.3 mph - 0.02 in Rain Light Rain
11:51 PM 39.9 °F 30.5 °F 39.9 °F 100% 30.13 in 10.0 mi ENE 19.6 mph - 0.01 in Rain Light Rain